Hourly Weather Roundup
Issued by NWS Central Illinois

Home | Current Version | Previous Version | Text Only | Print | Product List | Glossary On
Versions: 1 2 3 4 5 6 7 8 9 10 11 12 13 14 15 16 17 18 19 20 21 22 23 24 25 26 27 28 29 30 31 32 33 34 35 36 37 38 39 40 41 42 43 44 45 46 47 48 49 50
000
NZUS43 KILX 160710
HWRILX

AREA WEATHER ROUNDUP
NATIONAL WEATHER SERVICE, LINCOLN IL
200 AM CDT WED APR 16 2014


CITY           SKY/WX    TMP DP  RH WIND       PRES   REMARKS
BLOOMINGTON    CLEAR     28  21  75 SE8       30.22S WCI  20
CHAMPAIGN      CLEAR     30  25  81 SE7       30.24R WCI  23
DANVILLE       CLEAR     29  22  74 SE7       30.23S WCI  22
DECATUR        CLEAR     32  23  69 S7        30.23S WCI  26
FLORA          CLEAR     30  25  83 SE5       30.27S WCI  25
GALESBURG      CLEAR     32  24  74 SE6       30.15F WCI  26
JACKSONVILLE   CLEAR     36  24  60 SE9       30.19F WCI  29
LACON          CLEAR     32  22  66 SE8       30.20S WCI  25
LAWRENCEVILLE  CLEAR     33  26  75 SE7       30.29R WCI  27
LITCHFIELD     CLEAR     34  26  72 CALM      30.22R
$$


CITY           SKY/WX    TMP DP  RH WIND       PRES   REMARKS
LINCOLN        CLEAR     32  26  78 S3        30.22S
MACOMB         CLEAR     32  26  77 SE9       30.17F WCI  25
MATTOON        CLEAR     32  24  72 S8        30.24R WCI  25
MT CARMEL AP   CLEAR     34  32  93 SE5       30.28S WCI  30
OLNEY-NOBLE AP CLEAR     32  27  80 CALM      30.27S
PARIS          CLEAR     31  26  80 CALM      30.27S
PEORIA         CLEAR     34  20  56 SE7       30.19F WCI  28
PONTIAC        CLEAR     32  27  80 SE7       30.23S WCI  26
RANTOUL        CLEAR     32  26  78 CALM      30.25S
ROBINSON       CLEAR     31  29  92 CALM      30.30R
SPRINGFIELD    CLEAR     35  23  61 S10       30.21S WCI  27
TAYLORVILLE    CLEAR     32  25  74 S9        30.22S WCI  24
$$

...REGIONAL REPORTS...


CITY           SKY/WX    TMP DP  RH WIND       PRES   REMARKS
CHICAGO O`HARE CLEAR     29  19  66 S6        30.22R WCI  23
KANKAKEE       CLEAR     29  23  78 SE5       30.25R WCI  24
MOLINE         CLEAR     29  19  66 E6        30.15F WCI  23
MOUNT VERNON   PTCLDY    28  18  64 CALM      30.27R
PITTSFIELD     CLEAR     35  25  68 SE7       30.18S WCI  29
QUINCY         CLEAR     37  22  54 SE9       30.13F WCI  30
ROCKFORD       CLEAR     28  21  75 SE5       30.21S WCI  23
$$


CITY           SKY/WX    TMP DP  RH WIND       PRES   REMARKS
BURLINGTON     PTCLDY    37  22  54 SE12      30.11F WCI  29
CEDAR RAPIDS   PTCLDY    33  20  58 SE13      30.07F WCI  24
DES MOINES     PTCLDY    40  27  59 SE14      29.95F WCI  32
KIRKSVILLE     PTCLDY    38  25  59 S14       30.07S WCI  30
OTTUMWA        PTCLDY    38  23  55 SE14      30.04F WCI  30
ST LOUIS       MOCLDY    41  22  46 SE12      30.22S WCI  34
$$


CITY           SKY/WX    TMP DP  RH WIND       PRES   REMARKS
TERRE HAUTE    CLEAR     30  22  72 SE3       30.28R
EVANSVILLE     CLEAR     34  29  82 CALM      30.30R
INDIANAPOLIS   CLEAR     27  19  72 SE7       30.27R WCI  19
LAFAYETTE      CLEAR     27  18  69 CALM      30.27R
MADISON        CLOUDY    29  19  66 E8        30.18S WCI  21
MILWAUKEE      PTCLDY    26  20  77 CALM      30.23R
$$




USA.gov is the U.S. government's official web portal to all federal, state and local government web resources and services.